Retour au catalogue

DELTA 1 R/B

ActifLEO
NORAD 13778·ROCKET BODY·🇺🇸 United States

Lancé Jan 26, 1983 depuis Vandenberg Space Force Base

Loading…

Prochains Passages (prochaines 24 heures)

TLE

FraisSource: Space-Track

Époque: Sep 14, 2026, 14:20 UTC

1 13778U 83004B   26257.59778494  .00000070  00000-0  70696-4 0  9995
2 13778 100.0543 320.5907 0021286  40.2126 320.0610 14.09727070242323

Suivez DELTA 1 R/B en temps réel avec AllMySat

Download on the App Store